User: anonymous   Login
Location: Follega
(52.8850°N, 5.7362°E)
Time: 01:55:32
(UTC+00:00)
Language:

ERS-1 Rocket - Orbit

View from above orbital plane
View from above orbital plane
View from above satellite
View from above satellite

Ground track
Ground track

The orbit data is extracted from the following two-line orbital elements,

1 21610U 91050F   21127.77127935  .00000015  00000-0  18136-4 0  9998
2 21610  98.4249 199.1081 0003474  28.2269  81.3858 14.40945572564687
Epoch (UTC): 07 May 2021 18:30:38
Eccentricity: 0.0003474
inclination: 98.4249°
perigee height: 753 km
apogee height: 758 km
right ascension of ascending node: 199.1081°
argument of perigee: 28.2269°
revolutions per day: 14.40945572
mean anomaly at epoch: 81.3858°
orbit number at epoch: 56468

The dashed part of the orbit path shows where the satellite is in the earth's shadow,  

DLR